Regional Weather Roundup
Issued by NWS Sioux Falls, SD

Home | Current Version | Previous Version | Text Only | Print | Product List | Glossary On
Versions: 1 2 3 4 5 6 7 8 9 10 11 12 13 14 15 16 17 18 19 20 21 22 23 24 25 26 27 28 29 30 31 32 33 34 35 36 37 38 39 40 41 42 43 44 45 46 47 48 49 50
598
ASUS43 KFSD 261410
RWRFSD

WEATHER ROUNDUP FOR SE SOUTH DAKOTA/SW MINNESOTA/NW IOWA
NATIONAL WEATHER SERVICE SIOUX FALLS SD
900 AM CDT THU MAY 26 2016

NOTE: "FAIR" INDICATES FEW OR NO CLOUDS BELOW 12,000 FEET WITH NO
SIGNIFICANT WEATHER AND OR OBSTRUCTIONS TO VISIBILITY.


SDZ038>040-050-052>070-261500-
SOUTHEAST SOUTH DAKOTA

CITY           SKY/WX    TMP DP  RH WIND       PRES   REMARKS
BROOKINGS      SUNNY     62  49  62 NW9       29.87R
CHAMBERLAIN    SUNNY     65  56  73 E3        29.87F
HURON          MOSUNNY   61  52  72 SW6       29.88S
MADISON        FAIR      63  54  72 NW9       29.88S
MITCHELL       MOSUNNY   65  53  65 N7        29.88S
SIOUX FALLS    MOSUNNY   67  51  56 N3        29.87R
WINNER         FAIR      65  54  67 CALM      29.87F
YANKTON        MOSUNNY   63  54  72 CALM      29.87S
$$

MNZ071-072-080-081-089-090-097-098-261500-
SOUTHWEST MINNESOTA

CITY           SKY/WX    TMP DP  RH WIND       PRES   REMARKS
FAIRMONT       SUNNY     64  57  77 SW12      29.86R
JACKSON        SUNNY     64  55  72 W8        29.88R
LUVERNE        SUNNY     64  46  52 NW5       29.87F
MARSHALL       SUNNY     65  50  58 NW12      29.84F
MONTEVIDEO     SUNNY     68  54  60 NW9       29.84R
PIPESTONE      SUNNY     64  50  59 NW10      29.87S
REDWOOD FALLS  SUNNY     66  54  65 W10       29.82R
TRACY          SUNNY     66  52  59 NW9       29.86S
WINDOM         SUNNY     66  55  68 CALM      29.86R
WORTHINGTON    SUNNY     64  51  62 NW12      29.88R
$$

IAZ001>003-012>014-020>022-031-032-NEZ013-014-SDZ071-261500-
NORTHWEST IOWA

CITY           SKY/WX    TMP DP  RH WIND       PRES   REMARKS
CHEROKEE       SUNNY     64  62  92 SW8       29.90S
DENISON        SUNNY     64  59  82 CALM      29.88S
ESTHERVILLE    SUNNY     64  59  83 SW14      29.88R
LE MARS        SUNNY     66  59  77 CALM      29.89F
ORANGE CITY    SUNNY     63  57  82 CALM      29.89F
SHELDON        SUNNY     66  52  59 W5        29.88S
SIOUX CITY     SUNNY     67  60  78 W5        29.89F
SPENCER        SUNNY     65  58  78 SW9       29.89R
STORM LAKE     SUNNY     64  59  82 SW12      29.91R
$$

ABBREVIATIONS USED IN REMARKS
   TC - TEMPERATURE IN CELSIUS
  WCI - WIND CHILL INDEX
   HX - HEAT INDEX
  VSB - VISIBILITY





USA.gov is the U.S. government's official web portal to all federal, state and local government web resources and services.